Flag for Norway Weather past 2 weeks in Kristiansand, Norway

Now
43 °F

Partly sunny.


Feels Like: 36 °F
Forecast: 38 / 50 °F
Wind: 12 mph from Southwest

Location: Kristiansand / Kjevik

Current Time: Apr 25, 2015 at 10:24:34 PM

Latest Report: Apr 25, 2015 at 9:50 PM


Visibility: N/A

Pressure: 29.47 "Hg

Humidity: 87%

Dew point: 39 °F

Location of KristiansandLocation

Historic Weather in Kristiansand — Graph

°F

Kristiansand temperature yesterday

Maximum temperature yesterday: 54 °F (at 1:20 PM)
Minimum temperature yesterday: 41 °F (at 5:50 AM)
Average temperature yesterday: 47 °F

Past Weeks' High & Low Weather Summary

 TemperatureHumidityPressure
High73 °F (Apr 20, 3:50 PM)100% (Apr 11, 5:50 AM)30.39 "Hg (Apr 11, 5:50 AM)
Low32 °F (Apr 18, 3:50 AM)15% (Apr 20, 3:50 PM)29.42 "Hg (Apr 25, 4:20 PM)
Average47 °F65%29.99 "Hg
* Reported Apr 10 8:20 PM — Apr 25 8:50 PM, Kristiansand, Weather by CustomWeather, © 2015

Note: Actual official high and low records may vary slightly from our data, if they occured in-between our weather recording intervals... More about our weather records

Advertising

Kristiansand weather history for previous 24 hours

 ConditionsComfort  
Time TempWeatherWind HumidityBarometerVisibility
8:50 PM
Sat, Apr 25
46 °FBroken clouds.9 mph87%29.45 "HgN/A
8:20 PM46 °FBroken clouds.14 mph87%29.42 "HgN/A
7:50 PM48 °FBroken clouds.10 mph87%29.42 "HgN/A
7:20 PM46 °FFog.17 mph100%29.42 "Hg3 mi
6:50 PM48 °FLow clouds.16 mph94%29.42 "Hg4 mi
6:20 PM48 °FLow clouds.14 mph94%29.42 "Hg4 mi
5:50 PM46 °FLow clouds.17 mph100%29.42 "Hg4 mi
5:20 PM48 °FDrizzle. Fog.16 mph94%29.42 "Hg3 mi
4:50 PM46 °FDrizzle. Fog.17 mph100%29.42 "Hg2 mi
4:20 PM46 °FDrizzle. Fog.18 mph100%29.42 "Hg3 mi
3:50 PM48 °FFog.16 mph94%29.45 "Hg2 mi
3:20 PM48 °FFog.16 mph94%29.45 "Hg2 mi
2:50 PM48 °FFog.17 mph94%29.45 "Hg3 mi
2:20 PM48 °FLow clouds.18 mph94%29.45 "Hg4 mi
1:50 PM48 °FLow clouds.14 mph94%29.45 "Hg4 mi
1:20 PM46 °FFog.14 mph93%29.45 "Hg3 mi
12:50 PM46 °FFog.12 mph100%29.47 "Hg2 mi
12:20 PM46 °FFog.13 mph100%29.47 "Hg2 mi
11:50 AM46 °FFog.12 mph100%29.47 "Hg1 mi
11:20 AM48 °FFog.12 mph94%29.47 "Hg2 mi
10:50 AM46 °FDrizzle. Fog.10 mph100%29.47 "Hg1 mi
10:20 AM46 °FDrizzle. Fog.10 mph100%29.47 "Hg1 mi
9:50 AM46 °FDrizzle. Fog.13 mph93%29.47 "Hg1 mi
9:20 AM46 °FDrizzle. Fog.10 mph93%29.47 "Hg2 mi
8:50 AM45 °FDrizzle. Fog.9 mph100%29.47 "Hg2 mi
8:20 AM45 °FLight rain. Partly sunny.8 mph93%29.50 "Hg3 mi
7:50 AM45 °FLight rain. Partly sunny.7 mph93%29.50 "Hg4 mi
7:20 AM45 °FLight rain. Partly sunny.8 mph93%29.50 "Hg5 mi
6:50 AM45 °FDrizzle. Fog.6 mph93%29.50 "Hg3 mi
6:20 AM45 °FDrizzle. Fog.9 mph93%29.53 "Hg2 mi
5:50 AM45 °FDrizzle. Fog.8 mph93%29.53 "Hg2 mi
5:20 AM45 °FMostly cloudy.6 mph93%29.53 "Hg3 mi
4:50 AM45 °FMostly cloudy.8 mph93%29.56 "Hg4 mi
4:20 AM45 °FFog.8 mph93%29.56 "Hg3 mi
3:50 AM45 °FMostly cloudy.8 mph93%29.56 "Hg4 mi
3:20 AM45 °FMostly cloudy.8 mph93%29.56 "Hg4 mi
2:50 AM45 °FLow clouds.9 mph93%29.56 "Hg5 mi
2:20 AM45 °FMostly cloudy.9 mph100%29.59 "Hg5 mi
1:20 AM45 °FFog.12 mph100%29.59 "Hg2 mi
12:50 AM45 °FFog.7 mph100%29.59 "Hg2 mi
12:20 AM45 °FFog.8 mph93%29.62 "Hg1 mi
11:50 PM
Fri, Apr 24
45 °FLow clouds.9 mph93%29.62 "Hg3 mi
10:50 PM45 °FDrizzle. Fog.8 mph93%29.62 "Hg1 mi
10:20 PM45 °FPassing clouds.10 mph87%29.65 "HgN/A
Weather by CustomWeather, © 2015

See weather overviewHow to use our weather pages